FW1312 Weather Reports


Display with metric or nautical units.
time (UTC)temp
F
wind
direction
speed
MPH
gust
MPH
rain 1hr
in
rain 24hr
in
rain mn
in
humidity
%
barometer
mb
20211025223120 85 161 2.0 6.0 0.00 0.00 0.00 83 1011.4
20211025221629 84 205 3.0 6.0 0.00 0.00 0.00 83 1011.3
20211025220024 84 144 2.0 7.0 0.00 0.00 0.00 83 1011.4
20211025213209 84 185 5.0 9.0 0.00 0.00 0.00 84 1011.5
20211025211548 84 144 3.0 6.0 0.00 0.00 0.00 85 1011.5
20211025210020 84 134 3.0 9.0 0.00 0.00 0.00 85 1011.6
20211025204551 84 233 3.0 7.0 0.00 0.00 0.00 86 1011.7
20211025203054 84 147 4.0 8.0 0.00 0.00 0.00 86 1011.7
20211025201505 85 188 6.0 11.0 0.00 0.00 0.00 87 1011.8
20211025200131 84 205 4.0 9.0 0.00 0.00 0.00 88 1011.9
20211025194536 83 180 6.0 11.0 0.00 0.00 0.00 88 1012.1
20211025193109 83 214 3.0 10.0 0.00 0.00 0.00 89 1012.2
20211025191525 82 186 3.0 7.0 0.00 0.00 0.00 89 1012.4
20211025190100 81 126 1.0 7.0 0.00 0.00 0.00 90 1012.6
20211025184540 81 261 3.0 9.0 0.00 0.00 0.00 90 1013.0
20211025183014 80 227 2.0 6.0 0.00 0.00 0.00 90 1013.3
20211025181616 79 196 1.0 7.0 0.00 0.00 0.00 91 1013.6
20211025180027 78 201 2.0 4.0 0.00 0.00 0.00 90 1013.7
20211025173033 77 156 2.0 3.0 0.00 0.00 0.00 91 1014.1
20211025171720 77 258 0.0 4.0 0.00 0.00 0.00 91 1014.1
20211025170034 76 178 1.0 6.0 0.00 0.00 0.00 91 1014.2
20211025164613 76 140 1.0 4.0 0.00 0.00 0.00 90 1014.3
20211025163141 75 214 0.0 5.0 0.00 0.00 0.00 90 1014.3
20211025161515 75 219 2.0 5.0 0.00 0.00 0.00 90 1014.3
20211025160103 75 219 1.0 6.0 0.00 0.00 0.00 90 1014.2
20211025154702 74 231 2.0 5.0 0.00 0.00 0.00 90 1014.3
20211025153036 74 231 2.0 6.0 0.00 0.00 0.00 90 1014.4
20211025151506 74 168 2.0 5.0 0.00 0.00 0.00 90 1014.4
20211025150111 74 216 3.0 8.0 0.00 0.00 0.00 90 1014.4
20211025144535 73 209 2.0 6.0 0.00 0.00 0.00 90 1014.4
20211025141536 73 244 3.0 8.0 0.00 0.00 0.00 89 1014.1
20211025140124 72 224 4.0 7.0 0.00 0.00 0.00 89 1014.0
20211025134535 72 236 1.0 5.0 0.00 0.00 0.00 89 1013.8
20211025133123 72 238 2.0 6.0 0.00 0.00 0.00 89 1013.7
20211025131608 72 259 2.0 5.0 0.00 0.00 0.00 89 1013.5
20211025130033 72 172 3.0 5.0 0.00 0.00 0.00 88 1013.3
20211025124600 72 229 3.0 6.0 0.00 0.00 0.00 88 1013.1
20211025123043 72 206 3.0 6.0 0.00 0.00 0.00 88 1013.1
20211025121508 72 232 2.0 5.0 0.00 0.00 0.00 88 1013.0
20211025120107 72 252 2.0 4.0 0.00 0.00 0.00 88 1012.8
20211025114542 72 252 1.0 2.0 0.00 0.00 0.00 88 1012.6
20211025113016 72 252 2.0 4.0 0.00 0.00 0.00 87 1012.5
20211025111628 72 254 2.0 6.0 0.00 0.00 0.00 87 1012.4
20211025110101 72 211 3.0 4.0 0.00 0.00 0.00 87 1012.2
20211025104508 72 209 2.0 5.0 0.00 0.00 0.00 87 1012.0
20211025103025 72 217 4.0 7.0 0.00 0.00 0.00 87 1011.8
20211025101515 72 209 3.0 10.0 0.00 0.00 0.00 86 1011.8
20211025100120 73 230 3.0 7.0 0.00 0.00 0.00 86 1011.8
20211025094556 72 213 4.0 10.0 0.00 0.00 0.00 86 1011.7
20211025093038 71 201 4.0 9.0 0.00 0.00 0.00 86 1011.6
20211025091640 71 209 4.0 6.0 0.00 0.00 0.00 85 1011.5
20211025090118 71 212 2.0 5.0 0.00 0.00 0.00 85 1011.5
20211025084535 72 221 3.0 6.0 0.00 0.00 0.00 85 1011.5
20211025083109 72 193 4.0 8.0 0.00 0.00 0.00 85 1011.3
20211025081616 71 201 3.0 6.0 0.00 0.00 0.00 84 1011.4
20211025080100 71 360 4.0 9.0 0.00 0.00 0.00 84 1011.3
20211025074530 71 183 3.0 6.0 0.00 0.00 0.00 84 1011.4
20211025073119 71 165 3.0 6.0 0.00 0.00 0.00 84 1011.4
20211025071549 71 209 5.0 9.0 0.00 0.00 0.00 83 1011.3
20211025070016 71 165 3.0 6.0 0.00 0.00 0.00 83 1011.3
20211025064747 71 203 4.0 7.0 0.00 0.00 0.00 83 1011.2
20211025063105 71 182 3.0 6.0 0.00 0.00 0.00 82 1011.2
20211025061602 71 144 2.0 5.0 0.00 0.00 0.00 82 1011.1
20211025060019 71 175 3.0 6.0 0.00 0.00 0.00 82 1011.0
20211025054501 71 155 3.0 8.0 0.00 0.00 0.00 82 1010.9
20211025053048 71 151 4.0 9.0 0.00 0.00 0.00 81 1011.0
20211025051551 71 150 4.0 8.0 0.00 0.00 0.00 81 1010.9
20211025050105 71 147 2.0 6.0 0.00 0.00 0.00 80 1010.8
20211025044609 71 160 3.0 7.0 0.00 0.00 0.00 80 1010.7
20211025043033 71 161 4.0 8.0 0.00 0.00 0.00 80 1010.8
20211025041701 72 184 4.0 7.0 0.00 0.00 0.00 79 1010.6
20211025040133 72 139 5.0 8.0 0.00 0.00 0.00 79 1010.6
20211025034536 72 163 1.0 4.0 0.00 0.00 0.00 79 1010.5
20211025033019 72 184 3.0 4.0 0.00 0.00 0.00 78 1010.3
20211025031552 73 173 2.0 4.0 0.00 0.00 0.00 78 1010.1
20211025030152 73 165 2.0 4.0 0.00 0.00 0.00 78 1010.0
20211025024624 74 169 2.0 5.0 0.00 0.00 0.00 77 1009.8
20211025023107 74 187 2.0 3.0 0.00 0.00 0.00 77 1009.9
20211025021633 74 187 2.0 3.0 0.00 0.00 0.00 77 1009.9
20211025020022 74 188 2.0 4.0 0.00 0.00 0.00 76 1009.7
20211025014635 75 167 3.0 4.0 0.00 0.00 0.00 76 1009.6
20211025013037 75 166 0.0 7.0 0.00 0.00 0.00 75 1009.5
20211025011519 76 182 3.0 5.0 0.00 0.00 0.00 75 1009.3
20211025010055 76 190 5.0 7.0 0.00 0.00 0.00 74 1009.1
20211025004532 77 197 4.0 5.0 0.00 0.00 0.00 74 1009.1
20211025003004 77 186 4.0 6.0 0.00 0.00 0.00 74 1008.7
20211025001630 78 195 4.0 6.0 0.00 0.00 0.00 73 1008.6
20211025000035 79 198 4.0 6.0 0.00 0.00 0.00 73 1008.5
20211024234520 80 207 5.0 7.0 0.00 0.00 0.00 73 1008.4
20211024231549 82 202 4.0 6.0 0.00 0.00 0.00 74 1008.2
20211024230023 83 216 5.0 9.0 0.00 0.00 0.00 74 1008.2
20211024224608 83 200 5.0 9.0 0.00 0.00 0.00 75 1008.3